Regional Weather Roundup
Issued by NWS

Home | Current Version | Previous Version | Graphics & Text | Print | Product List | Glossary On
Versions: 1 2 3 4 5 6 7 8 9 10 11 12 13 14 15 16 17 18 19 20 21 22 23 24 25 26 27 28 29 30 31 32 33 34 35 36 37 38 39 40 41 42 43 44 45 46 47 48 49 50
000
ASUS45 KBOI 172210
RWRID
WEATHER ROUNDUP FOR IDAHO
NATIONAL WEATHER SERVICE BOISE ID
300 PM MST WED DEC 17 2014

NOTE: "FAIR" INDICATES FEW OR NO CLOUDS BELOW 12000 FEET
WITH NO SIGNIFICANT WEATHER AND/OR OBSTRUCTIONS TO VISIBILITY

IDZ012-014-172300-
SOUTHWEST IDAHO


CITY           SKY/WX    TMP DP  RH WIND       PRES   REMARKS
BOISE          CLOUDY    46  34  62 CALM      29.93F
CALDWELL       CLOUDY    45  30  57 S5        29.96S
MOUNTAIN HOME  SUNNY     45  33  64 E17       29.93F
$$

IDZ016-017-172300-
SOUTHCENTRAL IDAHO


CITY           SKY/WX    TMP DP  RH WIND       PRES   REMARKS
BURLEY         SUNNY     42  29  59 NE8       29.94F
JEROME         SUNNY     40  31  70 NE13      29.95F WCI  32
TWIN FALLS     SUNNY     42  31  64 NE9       29.94F
$$

IDZ019>023-172300-
SOUTHEAST IDAHO


CITY           SKY/WX    TMP DP  RH WIND       PRES   REMARKS
IDAHO FALLS    PTSUNNY   32  29  88 N3        29.98S
POCATELLO      MOSUNNY   39  32  76 NE6       29.97F WCI  35
REXBURG        SUNNY     36  29  75 NE3       29.97S
$$

IDZ006-010-011-018-031-032-172300-
CENTRAL IDAHO MOUNTAINS


CITY           SKY/WX    TMP DP  RH WIND       PRES   REMARKS
MCCALL         CLOUDY    35  28  75 CALM      29.90S
HAILEY         MOSUNNY   36  25  64 NW7       29.95S WCI  30
STANLEY          N/A     29  20  69 N3        29.94S
SALMON         MOSUNNY   34  25  69 CALM      29.97S
CHALLIS        CLOUDY    29  23  78 CALM      29.97S
$$

IDZ002-004-006-007-026-172300-
NORTHERN IDAHO


CITY           SKY/WX    TMP DP  RH WIND       PRES   REMARKS
LEWISTON       CLOUDY    43  37  79 E6        29.91S
LOWELL           N/A     39  34  82 N5        29.97R
COEUR D`ALENE  MOSUNNY   37  28  70 NE10      29.90S WCI  30
MULLAN PASS    PTSUNNY   28  26  92 S6        29.84R WCI  22
$$



USA.gov is the U.S. government's official web portal to all federal, state and local government web resources and services.